SCP
4 4 5 5 5 5 5 4 3 3 3 2 2 2 2 2 2 2 2 2 2 2 2 2 2 2 2 2 1 1 1 1 1 1 1 0 0 0 0 0 0 0 0
4 5 5 5 5 5 4 3 3 3 3 2 2 2 2 2 2 2 2 2 2 2 2 2 2 2 1 1 1 1 1 1 1 1 0 0 0 0 0 0 0 0 0
4 4 4 4 4 4 3 3 3 3 3 3 3 3 3 2 2 2 2 1 1 1 1 1 1 1 1 1 1 1 1 1 1 0 0 0 0 0 0 0 0 0 0
3 3 3 3 3 3 3 3 3 3 3 3 3 3 3 2 2 1 1 1 1 1 1 1 1 1 1 1 1 0 0 0 0 0 0 0 0 0 0 0 0 0 0
2 2 3 3 3 3 3 3 3 3 3 3 3 3 2 2 1 1 1 1 1 0 0 0 0 0 0 0 0 0 0 0 0 0 0 0 0 0 0 0 0 0 0
1 1 2 2 2 2 2 2 2 3 3 3 2 2 2 1 1 1 1 0 0 0 0 0 0 0 0 0 0 0 0 0 0 0 0 0 0 0 0 0 0 0 0
1 1 1 1 1 1 2 2 2 2 2 2 2 1 1 1 1 1 0 0 0 0 0 0 0 0 0 0 0 0 0 0 0 0 0 0 0 0 0 0 0 0 0
0 0 0 0 0 1 1 1 1 1 1 1 1 1 1 0 0 0 0 0 0 0 0 0 0 0 0 0 0 0 0 0 0 0 0 0 0 0 0 0 0 0 0
0 0 0 0 0 0 0 0 0 0 0 0 0 0 0 0 0 0 0 0 0 0 0 0 0 0 0 0 0 0 0 0 0 0 0 0 0 0 0 0 0 0 0
0 0 0 0 0 0 0 0 0 0 0 0 0 0 0 0 0 0 0 0 0 0 0 0 0 0 0 0 0 0 0 0 0 0 0 0 0 0 0 0 0 0 0
0 0 0 0 0 0 0 0 0 0 0 0 0 0 0 0 0 0 0 0 0 0 0 0 0 0 0 0 0 0 0 0 0 0 0 0 0 0 0 0 0 0 0
0 0 0 0 0 0 0 0 0 0 0 0 0 0 0 0 0 0 0 0 0 0 0 0 0 0 0 0 0 0 0 0 0 0 0 0 0 0 0 0 0 0 0
0 0 0 0 0 0 0 0 0 0 0 0 0 0 0 0 0 0 0 0 0 0 0 0 0 0 0 0 0 0 0 0 0 0 0 0 0 0 0 0 0 0 0
0 0 0 0 0 0 0 0 0 0 0 0 0 0 0 0 0 0 0 0 0 0 0 0 0 0 0 0 0 0 0 0 0 0 0 0 0 0 0 0 0 0 0
0 0 0 0 0 0 0 0 0 0 0 0 0 0 0 0 0 0 0 0 0 0 0 0 0 0 0 0 0 0 0 0 0 0 0 0 0 0 0 0 0 0 0
0 0 0 0 0 0 0 0 0 0 0 0 0 0 0 0 0 0 0 0 0 0 0 0 0 0 0 0 0 0 0 0 0 0 0 0 0 0 0 0 0 0 0
0 0 0 0 0 0 0 0 0 0 0 0 0 0 0 0 0 0 0 0 0 0 0 0 0 0 0 0 0 0 0 0 0 0 0 0 0 0 0 0 0 0 0
0 0 0 0 0 0 0 0 0 0 0 0 0 0 0 0 0 0 0 0 0 0 0 0 0 0 0 0 0 0 0 0 0 0 0 0 0 0 0 0 0 0 0
0 0 0 0 0 0 0 0 0 0 0 0 0 0 0 0 0 0 0 0 0 0 0 0 0 0 0 0 0 0 0 0 0 0 0 0 0 0 0 0 0 0 0
0 0 0 0 0 0 0 0 0 0 0 0 0 0 0 0 0 0 0 0 0 0 0 0 0 0 0 0 0 0 0 0 0 0 0 0 0 0 0 0 0 0 0
0 0 0 0 0 0 0 0 0 0 0 0 0 0 0 0 0 0 0 0 0 0 0 0 0 0 0 0 0 0 0 0 0 0 0 0 0 0 0 0 0 0 0
0 0 0 0 0 0 0 0 0 0 0 0 0 0 0 0 0 0 0 0 0 0 0 0 0 0 0 0 0 0 0 0 0 0 0 0 0 0 0 0 0 0 0
0 0 0 0 0 0 0 0 0 0 0 0 0 0 0 0 0 0 0 0 0 0 0 0 0 0 0 0 0 0 0 0 0 0 0 0 0 0 0 0 0 0 0
0 0 0 0 0 0 0 0 0 0 0 0 0 0 0 0 0 0 0 0 0 0 0 0 0 0 0 0 0 0 0 0 0 0 0 0 0 0 0 0 0 0 0
0 0 0 0 0 0 0 0 0 0 0 0 0 0 0 0 0 0 0 0 0 0 0 0 0 0 0 0 0 0 0 0 0 0 0 0 0 0 0 0 0 0 0
0 0 0 0 0 0 0 0 0 0 0 0 0 0 0 0 0 0 0 0 0 0 0 0 0 0 0 0 0 0 0 0 0 0 0 0 0 0 0 0 0 0 0
Wind_Speed
6 7 8 9 11 12 11 10 9 9 8 6 6 5 4 3 3 3 4 4 3 2 2 1 1 1 1 1 1 1 0 0 1 1 1 1 1 2 2 2 2 2 2
10 10 8 8 9 9 9 9 8 9 8 6 5 4 4 4 4 4 5 5 4 3 1 2 1 1 1 1 1 1 1 0 0 1 0 1 0 1 1 2 2 2 2
12 11 9 8 8 5 5 6 6 7 7 6 5 4 4 3 3 4 4 6 7 6 6 5 4 3 2 1 1 1 1 1 0 1 0 1 1 1 1 1 1 2 2
13 11 11 11 9 7 4 5 5 5 5 6 6 6 5 4 4 5 5 7 8 7 7 6 5 5 3 2 2 3 1 1 0 1 1 1 1 0 0 0 1 1 2
14 13 14 13 13 10 7 6 6 5 4 4 5 6 5 6 6 7 8 7 7 8 8 7 7 7 6 7 7 6 5 4 3 2 1 1 1 1 0 0 1 1 1
12 13 14 15 14 13 10 9 8 8 7 7 6 7 9 9 10 9 8 7 7 8 10 10 10 9 8 8 8 8 9 7 7 5 5 3 3 2 2 1 1 1 1
13 14 15 14 14 14 13 11 12 11 10 11 10 10 11 11 11 9 9 8 7 8 10 10 10 9 9 9 9 9 9 9 8 7 6 5 5 3 3 2 2 2 1
13 14 13 12 13 14 14 15 15 14 14 13 13 12 12 10 9 11 10 10 9 9 9 11 11 11 10 10 9 9 8 8 7 8 7 5 5 5 4 3 2 2 2
13 13 13 13 14 14 15 15 16 16 16 16 16 15 14 14 13 13 12 10 9 9 11 11 11 11 11 10 9 8 8 7 7 6 7 5 4 4 4 3 3 2 3
13 13 12 13 13 13 14 15 16 17 16 15 14 14 15 14 14 13 14 12 11 10 11 10 10 10 10 9 8 6 7 7 6 5 6 6 4 4 4 4 3 2 2
12 12 12 12 13 13 14 14 15 15 15 15 15 15 14 14 14 12 12 11 10 9 9 9 9 9 8 7 7 7 7 6 6 5 6 5 5 4 4 4 4 4 3
12 12 12 12 13 13 13 14 13 14 14 14 14 14 13 13 12 11 10 9 9 8 8 8 8 8 7 6 6 6 6 5 5 5 5 5 5 5 4 4 4 3 3
13 12 12 12 12 12 12 12 12 13 13 13 13 12 12 11 11 10 9 9 8 8 7 6 6 6 5 5 5 4 4 4 4 4 4 4 4 5 5 5 5 4 5
12 12 11 11 11 11 11 11 12 12 12 12 12 12 11 10 10 9 8 7 7 6 5 5 5 6 7 8 8 7 4 4 4 3 4 3 3 4 5 5 5 5 6
12 12 11 10 10 10 10 10 10 10 10 11 11 10 9 9 8 7 6 5 5 6 4 4 5 6 7 8 9 8 7 6 5 4 4 4 2 1 3 4 4 5 5
12 12 11 11 10 10 9 9 9 8 9 10 10 9 8 8 7 6 5 4 4 4 4 5 6 7 7 8 9 8 7 6 5 4 5 5 1 1 4 8 9 9 7
12 11 10 10 9 8 8 8 8 8 8 8 8 8 7 7 6 6 5 5 4 4 4 4 6 7 6 6 8 10 7 6 4 4 4 5 5 5 6 8 10 9 10
12 10 9 9 8 7 7 7 7 7 7 7 7 7 7 7 6 5 5 4 3 2 3 4 5 6 5 4 7 12 7 5 4 4 3 3 3 5 6 8 8 8 7
11 9 8 8 7 7 6 6 6 6 7 7 6 6 6 6 5 5 4 3 2 2 2 3 4 4 4 2 6 9 7 4 4 4 4 4 3 4 6 7 8 8 7
9 9 8 7 7 6 5 5 6 6 6 7 6 6 6 5 4 4 3 1 1 2 2 3 3 3 4 2 4 7 6 5 6 4 2 2 3 5 6 6 7 8 8
9 9 8 7 6 5 5 5 6 6 6 6 6 5 4 3 3 2 1 1 1 1 1 1 2 3 4 3 2 4 4 6 6 6 4 2 4 9 10 8 7 9 9
10 9 7 7 6 5 5 6 6 5 5 5 5 4 2 2 3 1 0 1 1 1 0 1 1 3 4 2 1 4 5 5 6 6 5 6 11 13 14 10 9 12 10
9 8 8 7 6 5 5 6 5 4 4 4 3 2 2 2 1 1 1 1 2 2 2 2 2 2 2 2 2 5 8 8 5 5 10 13 15 13 10 9 11 9 6
9 8 8 8 6 6 5 5 4 3 3 3 2 2 1 1 1 2 3 4 5 5 5 4 4 3 4 5 6 6 6 7 6 7 11 13 12 8 8 9 7 4 4
8 8 7 7 7 6 6 5 4 3 2 1 1 1 1 1 2 4 5 5 5 4 4 5 5 5 5 4 5 5 6 7 7 8 7 5 4 4 4 4 4 3 4
8 7 7 7 7 6 6 5 4 3 2 1 1 1 1 1 2 5 5 7 6 5 5 3 3 2 3 6 9 9 11 12 10 6 5 4 4 5 5 5 5 4 4
Wind_Direction
106 109 115 134 132 137 146 157 166 161 162 167 173 176 175 150 117 95 83 89 92 95 104 119 70 47 25 9 350 299 224 342 342 302 309 324 5 22 18 20 35 52 56
66 67 85 104 114 127 145 161 168 164 169 167 167 164 154 136 118 95 78 73 72 62 81 84 71 67 54 4 334 281 235 243 327 272 280 269 273 320 18 18 33 40 37
64 54 57 69 88 103 139 159 160 158 165 161 153 145 135 129 118 104 81 62 61 54 43 43 43 44 51 48 9 324 254 228 129 46 147 224 232 150 102 38 46 45 38
56 50 51 49 56 67 84 100 117 134 148 156 159 162 161 149 118 101 86 72 64 61 55 50 49 49 42 36 45 48 21 58 142 96 60 83 60 127 161 129 80 75 66
48 42 42 44 40 41 63 74 82 90 110 135 148 150 132 118 108 101 93 80 67 59 54 54 54 50 45 42 44 49 45 47 46 39 31 42 42 16 73 121 47 24 39
57 46 43 43 40 37 47 63 71 69 78 87 94 111 119 117 112 105 97 83 69 60 54 55 57 55 52 49 49 53 54 52 50 45 38 34 33 21 24 30 10 357 331
59 51 45 42 41 41 44 55 64 62 68 76 76 81 91 95 96 96 89 82 74 64 57 59 58 55 53 53 53 53 51 49 52 48 41 40 41 22 15 28 17 356 331
63 59 56 51 49 47 48 54 61 59 61 68 72 74 78 81 80 81 84 80 75 70 64 63 63 60 57 57 56 54 51 48 49 50 43 38 37 25 22 18 7 357 342
70 66 61 58 57 55 55 59 65 65 63 67 71 71 74 79 81 79 77 76 76 77 69 65 63 59 55 54 57 55 50 47 43 43 40 33 31 22 10 8 8 0 341
77 70 66 65 64 65 65 66 68 71 71 71 73 77 76 78 81 81 81 80 78 77 74 70 67 63 58 54 54 54 48 51 40 38 38 30 20 15 1 350 350 349 342
86 81 77 73 72 71 70 71 72 74 74 74 76 78 79 79 80 80 81 82 80 78 78 77 75 70 61 54 52 52 48 46 40 30 31 22 19 11 350 353 353 354 358
91 86 83 81 77 75 74 74 76 77 78 80 82 81 82 83 82 82 82 81 80 78 77 75 74 73 70 63 58 52 46 40 38 30 24 16 15 5 357 352 341 337 323
97 91 86 83 82 81 81 81 83 85 87 88 87 86 84 84 84 83 83 82 82 81 80 80 77 73 67 56 45 46 43 34 30 26 12 7 17 9 2 338 341 337 339
101 97 92 88 87 87 88 89 88 89 91 91 89 88 86 87 87 87 87 88 91 90 86 82 76 67 55 40 24 15 24 21 16 12 355 359 22 14 351 333 345 342 332
107 105 102 98 94 92 91 89 90 92 94 95 94 93 93 93 92 92 93 93 90 89 86 80 72 67 62 36 21 358 6 2 360 358 350 345 4 358 296 322 331 323 319
114 111 108 106 102 99 99 98 98 99 100 100 101 102 103 102 101 99 95 90 80 71 67 63 65 60 55 36 19 2 344 335 342 351 346 328 37 317 274 281 286 282 287
120 115 111 106 105 104 106 108 106 104 105 106 108 110 109 105 105 103 95 83 76 72 66 65 79 85 67 29 4 353 325 312 324 334 332 338 1 13 357 336 319 301 285
121 118 116 113 111 110 108 109 109 110 110 109 111 113 112 107 105 98 91 83 71 63 70 65 79 98 83 25 357 341 317 307 323 326 334 342 10 28 356 329 321 316 313
124 124 123 123 123 122 122 123 122 123 117 112 112 111 108 102 96 89 84 69 52 45 72 70 74 98 110 24 356 347 319 332 342 340 1 360 26 24 345 325 321 320 320
127 127 127 126 123 126 135 135 127 117 109 106 102 99 96 95 87 76 71 55 21 38 55 67 72 87 109 109 351 346 335 352 345 342 3 60 2 337 329 321 316 314 320
131 133 132 130 131 136 137 125 117 111 108 108 105 104 110 119 104 87 56 351 16 51 51 63 99 105 107 152 282 333 341 350 337 337 338 3 338 325 318 308 286 290 305
135 135 131 132 136 140 133 120 112 114 114 112 108 106 97 73 88 91 34 359 334 313 115 69 87 122 133 109 190 294 303 303 313 324 334 334 323 317 310 301 287 298 304
137 137 136 135 133 133 127 123 124 128 123 114 106 101 83 65 43 334 343 11 3 8 26 34 38 61 78 101 350 318 308 301 293 315 322 315 307 305 302 301 304 303 293
142 142 141 139 138 140 137 138 137 131 124 130 144 161 150 137 78 17 31 42 24 16 12 26 27 38 55 34 8 348 341 346 348 344 323 313 305 297 292 300 305 295 297
142 144 143 142 142 144 144 144 137 128 130 155 184 218 167 136 102 78 48 50 63 48 21 16 11 18 22 11 337 326 327 332 331 324 307 308 328 337 336 333 329 326 335
142 143 144 144 143 144 146 149 151 154 176 226 242 251 166 156 157 140 117 61 95 111 84 54 15 27 18 328 323 321 314 308 309 313 309 329 347 347 344 345 348 348 349